Flag for Germany Weather past 2 weeks in Radolfzell am Bodensee, Baden-Württemberg, Germany

Now
63 °F

Overcast.


Feels Like: 63 °F
Forecast: 42 / 59 °F
Wind: 1 mph from Southeast

Location: Konstanz

Current Time: May 25, 2015 at 4:39:05 PM

Latest Report: May 25, 2015 at 4:00 PM


Visibility: 19 mi

Pressure: 29.90 "Hg

Humidity: 63%

Dew point: 50 °F

Location of Radolfzell am BodenseeLocation

Historic Weather in Radolfzell am Bodensee — Graph

°F

Radolfzell am Bodensee temperature yesterday

Maximum temperature yesterday: 65 °F (at 2:00 PM)
Minimum temperature yesterday: 51 °F (at 5:00 AM)
Average temperature yesterday: 58 °F

Past Weeks' High & Low Weather Summary

 TemperatureHumidityPressure
High84 °F (May 12, 6:00 PM)97% (May 15, 2:00 PM)30.33 "Hg (May 15, 2:00 PM)
Low44 °F (May 21, 4:00 AM)26% (May 12, 7:00 PM)29.70 "Hg (May 18, 7:00 PM)
Average58 °F72%30.07 "Hg
* Reported May 10 3:00 PM — May 25 3:00 PM, Radolfzell am Bodensee, Weather by CustomWeather, © 2015

Note: Actual official high and low records may vary slightly from our data, if they occured in-between our weather recording intervals... More about our weather records

Advertising

Radolfzell am Bodensee weather history for previous 24 hours

 ConditionsComfort  
Time TempWeatherWind HumidityBarometerVisibility
3:00 PM
Mon, May 25
64 °FOvercast.2 mph66%29.91 "Hg19 mi
2:00 PM63 °FOvercast.2 mph68%29.93 "Hg22 mi
1:00 PM65 °FScattered clouds.3 mph60%29.94 "Hg22 mi
12:00 PM65 °FPartly sunny.2 mph62%29.96 "Hg22 mi
11:00 AM62 °FOvercast.1 mph66%29.98 "Hg22 mi
10:00 AM58 °FOvercast.1 mph75%30.00 "Hg22 mi
9:00 AM57 °FOvercast.1 mph77%30.01 "Hg22 mi
8:00 AM55 °FOvercast.1 mph82%30.01 "Hg22 mi
7:00 AM54 °FOvercast.1 mph84%30.02 "Hg22 mi
6:00 AM54 °FOvercast.1 mph81%30.03 "Hg22 mi
5:00 AM55 °FOvercast.1 mph79%30.02 "Hg25 mi
4:00 AM55 °FOvercast.1 mph77%30.03 "Hg28 mi
3:00 AM56 °FOvercast.1 mph74%30.02 "Hg34 mi
2:00 AM56 °FOvercast.No wind72%30.03 "Hg34 mi
1:00 AM57 °FOvercast.1 mph68%30.04 "Hg37 mi
12:00 AM58 °FOvercast.2 mph65%30.04 "Hg43 mi
11:00 PM
Sun, May 24
59 °FOvercast.2 mph63%30.04 "Hg43 mi
10:00 PM60 °FOvercast.1 mph63%30.03 "Hg43 mi
9:00 PM61 °FOvercast.2 mph60%30.02 "Hg43 mi
8:00 PM63 °FPartly sunny.3 mph57%30.01 "Hg43 mi
7:00 PM64 °FOvercast.3 mph54%30.00 "Hg43 mi
6:00 PM64 °FOvercast.3 mph56%30.01 "Hg43 mi
5:00 PM65 °FOvercast.3 mph54%30.01 "Hg28 mi
4:00 PM65 °FOvercast.5 mph51%30.02 "Hg28 mi
Weather by CustomWeather, © 2015

See weather overviewHow to use our weather pages